This is the latest recevied weather packets stored in our database for station/object KC7UNY-13. If no packets are shown the sender has not sent any weather packets the latest 10 day(s).
| Time | Temp. | Humidity | Pressure | Rain* | Wind** | Luminosity | Snow |
|---|---|---|---|---|---|---|---|
| 1776897102 | 31.11° C | 21% | 1011.8 hPa | 0 mm | - | 473 W/m² | - |
| 1776896798 | 31.11° C | 21% | 1011.8 hPa | 0 mm | - | 490 W/m² | - |
| 1776896494 | 32.22° C | 20% | 1011.9 hPa | 0 mm | - | 511 W/m² | - |
| 1776896190 | 31.67° C | 21% | 1012.2 hPa | 0 mm | - | 505 W/m² | - |
| 1776895887 | 31.67° C | 20% | 1012.2 hPa | 0 mm | - | 519 W/m² | - |
| 1776895584 | 31.67° C | 20% | 1012.2 hPa | 0 mm | - | 528 W/m² | - |
| 1776895280 | 31.11° C | 21% | 1012.4 hPa | 0 mm | - | 536 W/m² | - |
| 1776894976 | 30.56° C | 21% | 1012.5 hPa | 0 mm | - | 588 W/m² | - |
| 1776894674 | 30.56° C | 20% | 1012.5 hPa | 0 mm | - | 571 W/m² | - |
| 1776894371 | 31.11° C | 21% | 1012.7 hPa | 0 mm | - | 549 W/m² | - |
| 1776894066 | 31.11° C | 20% | 1012.7 hPa | 0 mm | - | 619 W/m² | - |
| 1776893761 | 30.56° C | 21% | 1012.9 hPa | 0 mm | - | 613 W/m² | - |
| 1776893458 | 30.56° C | 21% | 1012.9 hPa | 0 mm | - | 653 W/m² | - |
| 1776893155 | 30° C | 21% | 1012.9 hPa | 0 mm | - | 651 W/m² | - |
| 1776892852 | 31.11° C | 20% | 1012.9 hPa | 0 mm | - | 665 W/m² | - |
| 1776892549 | 30.56° C | 20% | 1013.3 hPa | 0 mm | - | 670 W/m² | - |
| 1776892245 | 31.11° C | 21% | 1013.4 hPa | 0 mm | - | 701 W/m² | - |
| 1776891942 | 31.11° C | 21% | 1013.5 hPa | 0 mm | - | 710 W/m² | - |
| 1776891639 | 30.56° C | 21% | 1013.5 hPa | 0 mm | - | 691 W/m² | - |
| 1776891336 | 30.56° C | 21% | 1013.5 hPa | 0 mm | - | 705 W/m² | - |
| 1776891032 | 30.56° C | 21% | 1013.7 hPa | 0 mm | - | 685 W/m² | - |
| 1776890727 | 30.56° C | 22% | 1013.9 hPa | 0 mm | - | 749 W/m² | - |
* Rain latest hour (hover to see other rain measurements)
** Current wind speed in m/s (hover to see current wind gust speed)